Lapan A3
1 41603U 16040E 24144.76973093 .00005066 00000-0 20496-3 0 9995
2 41603 97.1422 159.5975 0012059 179.1435 180.9826 15.25065476439505
Pratham
1 41783U 16059A 24144.60903299 .00001794 00000-0 34171-3 0 9997
2 41783 97.8365 165.0996 0034105 98.5296 261.9775 14.64838024408943
CAS-2T
1 41847U 16066G 24144.17473271 .00001547 00000-0 23655-3 0 9991
2 41847 98.4606 215.6583 0353292 252.6355 103.5913 14.41161650395896
CAS-4B
1 42759U 17034B 24144.85774961 .00020379 00000-0 75000-3 0 9990
2 42759 43.0203 3.9823 0012538 195.1821 164.8656 15.27428300383688
CAS-4A
1 42761U 17034D 24144.86076253 .00022620 00000-0 82885-3 0 9993
2 42761 43.0239 2.3273 0011439 204.7979 155.2325 15.27531932383696
Aalto 1
1 42775U 17036L 24144.61575751 .00094704 00000-0 10080-2 0 9999
2 42775 97.1055 174.0109 0002878 262.3217 97.7716 15.63696605385262
URSA MAIOR
1 42776U 17036M 24144.82766717 .00284331 00000-0 14221-2 0 9995
2 42776 97.0993 178.1581 0004698 217.8642 142.2297 15.81042168385541
Max Valier Sat
1 42778U 17036P 24144.63518198 .00256706 00000-0 12776-2 0 9992
2 42778 97.0915 182.0586 0003375 210.0111 150.0965 15.81226376385693
D-SAT
1 42794U 17036AF 24144.52886333 .00005626 00000-0 39860-3 0 9994
2 42794 97.4901 127.3243 0108532 230.5104 128.6484 15.00498053377021
TechnoSat
1 42829U 17042E 24144.50992792 .00005463 00000-0 48569-3 0 9990
2 42829 97.3827 326.9676 0013384 152.3132 207.8806 14.96418069373482
AO-91
1 43017U 17073E 24144.59641420 .00014982 00000-0 92893-3 0 9997
2 43017 97.5816 20.9575 0212305 16.4463 344.3507 14.92944552351996
TianYi 2
1 43155U 18008A 24144.85667453 .00123558 00000-0 17406-2 0 9998
2 43155 97.2374 198.4365 0008854 166.3399 193.8098 15.56164050351112
Zhou Enlai
1 43156U 18008B 24144.87202787 .00224952 00000-0 21327-2 0 9993
2 43156 97.2401 200.1131 0006816 180.9980 179.1268 15.66191174351136
TianYi 6
1 43158U 18008D 24144.67021731 .00061150 00000-0 12940-2 0 9991
2 43158 97.2558 193.2386 0008506 170.8795 189.2610 15.44885431350689
S-Net D
1 43186U 18014G 24144.31098509 .00006494 00000-0 46967-3 0 9994
2 43186 97.5942 46.5917 0012891 91.6542 268.6161 15.04300656344764
S-Net B
1 43187U 18014H 24144.31314309 .00006598 00000-0 47708-3 0 9993
2 43187 97.5952 46.5413 0013742 87.7330 272.5469 15.04294613344764
S-Net A
1 43188U 18014J 24144.31216085 .00006554 00000-0 47382-3 0 9996
2 43188 97.5956 46.6512 0013617 88.5314 271.7472 15.04301898344761
S-Net C
1 43189U 18014K 24144.24880160 .00006769 00000-0 48908-3 0 9993
2 43189 97.5977 46.5315 0015383 82.2531 278.0441 15.04295972343309
Ten-Koh
1 43677U 18084G 24144.39270095 .00004414 00000-0 39957-3 0 9997
2 43677 98.0604 297.2045 0015395 98.8276 261.4688 14.95857654303014
PO-101
1 43678U 18084H 24144.84895129 .00003711 00000-0 34299-3 0 9992
2 43678 98.0688 302.1305 0010491 109.9760 250.2590 14.95192660303282
QO-100
1 43700U 18090A 24144.75599403 .00000165 00000-0 00000+0 0 9990
2 43700 0.0169 1.0308 0002016 97.4936 81.2891 1.00271581 20355
MinXSS-2
1 43758U 18099A 24144.16479299 .00013503 00000-0 86524-3 0 9996
2 43758 97.5560 206.9136 0017704 48.9822 311.2934 15.08522805299010
AO-95
1 43770U 18099N 24144.11699376 .00011115 00000-0 77670-3 0 9994
2 43770 97.5460 202.5011 0015079 90.2277 270.0677 15.05393380298795
RANGE-B
1 43772U 18099Q 24144.66752690 .00016017 00000-0 10063-2 0 9993
2 43772 97.5249 206.4335 0004856 6.4363 353.6927 15.09327687299024
RANGE-A
1 43773U 18099R 24144.59300603 .00006420 00000-0 49136-3 0 9990
2 43773 97.5030 198.6317 0015986 62.8492 297.4361 15.02116719298740
MOVE-II
1 43780U 18099Y 24144.72510167 .00023505 00000-0 12636-2 0 9998
2 43780 97.5231 207.9554 0007502 73.4476 286.7580 15.14858308299221
SNUSat 2
1 43782U 18099AA 24144.64957428 .00010226 00000-0 73028-3 0 9995
2 43782 97.5139 202.3066 0015012 30.5598 329.6500 15.04603423298886
SnugLite
1 43784U 18099AC 24144.15450269 .00009859 00000-0 68498-3 0 9999
2 43784 97.4974 201.1824 0005548 54.9898 305.1849 15.05720952298871
ITASat 1
1 43786U 18099AE 24144.11275658 .00009221 00000-0 67004-3 0 9999
2 43786 97.5112 202.0854 0018353 79.3657 280.9634 15.03933739298805
EAGLET 1
1 43790U 18099AJ 24144.40267941 .00005672 00000-0 42940-3 0 9990
2 43790 97.5292 202.8496 0015496 58.0807 302.1923 15.02589371298553
ESEO
1 43792U 18099AL 24144.11634633 .00003731 00000-0 30756-3 0 9992
2 43792 97.5217 199.5901 0014868 59.1803 301.0882 14.99547979298448
CSIM
1 43793U 18099AM 24144.57926190 .00021921 00000-0 11799-2 0 9991
2 43793 97.5306 209.5135 0012966 43.4177 316.8074 15.14781391299057
JO-97
1 43803U 18099AX 24144.40292430 .00010879 00000-0 73065-3 0 9993
2 43803 97.5213 203.6295 0010314 36.3902 323.8025 15.06925998298967
Suomi 100
1 43804U 18099AY 24144.64135816 .00012415 00000-0 84744-3 0 9998
2 43804 97.5292 203.6662 0016216 30.4756 329.7410 15.06226044298983
ISAT
1 43879U 18111D 24144.29839007 .00015047 00000-0 92892-3 0 9996
2 43879 97.6218 50.1286 0015314 86.1789 274.1191 15.09897736295669
UWE-4
1 43880U 18111E 24144.26931874 .00012930 00000-0 81730-3 0 9997
2 43880 97.6148 50.1800 0019061 93.8641 266.4767 15.09015159295675
Sparrow
1 43881U 18111F 24144.21144316 .00014818 00000-0 90322-3 0 9994
2 43881 97.6312 51.8959 0012310 120.4215 239.8232 15.10401112295712
AISat 1
1 44104U 19018AC 24144.56256120 .00241062 23297-4 79391-3 0 9998
2 44104 97.3617 253.9891 0009863 70.3319 289.9017 15.90386642288956
Prox-1
1 44339U 19036A 24144.00221432 .00013716 00000-0 23904-2 0 9999
2 44339 24.0003 27.3888 0008648 79.0966 281.0501 14.66319771261543
SONATE
1 44400U 19038Q 24144.54054818 .00023542 00000-0 73316-3 0 9992
2 44400 97.7115 137.5566 0016412 184.8801 175.2283 15.33150179270306
BeeSat 9
1 44412U 19038AC 24144.74496531 .00760912 25025-3 19851-2 0 9998
2 44412 97.6694 150.9869 0010881 163.0598 197.1042 15.94875784270951
JAISAT-1
1 44419U 19038F 24144.76438949 .00521444 10480-3 18217-2 0 9995
2 44419 97.6699 151.8630 0010541 156.9009 203.2739 15.89190688271321
Taurus 1
1 44530U 19059C 24144.75960623 .00010340 00000-0 24050-2 0 9994
2 44530 98.5738 264.2891 0012853 129.8427 230.3902 14.55027314248210
Duchifat 3
1 44854U 19089C 24144.49350059 .00018468 00000-0 95160-3 0 9993
2 44854 36.9562 198.8622 0007782 240.5281 119.4690 15.15666010244528
TO-108
1 44881U 19093C 24144.83013653 .00002295 00000-0 28367-3 0 9998
2 44881 97.8283 222.0821 0015343 46.8652 313.3842 14.83682319239438
FloripaSat 1
1 44885U 19093G 24144.77354620 .00008208 00000-0 85553-3 0 9997
2 44885 97.8409 227.5379 0013111 41.9270 318.2949 14.89978070239736
RS-44
1 44909U 19096E 24144.40710269 .00000016 00000-0 96771-5 0 9997
2 44909 82.5184 121.2414 0218577 109.0242 253.4676 12.79729988205809
BY70-2
1 45857U 20042B 24144.84472624 .00142307 00000-0 55457-2 0 9994
2 45857 97.9075 236.8914 0009771 269.0353 90.9764 15.25303542210832
UPMSat 2
1 46276U 20061E 24144.17329901 .00019122 00000-0 59874-3 0 9992
2 46276 97.2989 210.7243 0001564 156.8380 203.2933 15.33144788206348
AmicalSat
1 46287U 20061R 24144.16810172 .00037338 00000-0 10732-2 0 9996
2 46287 97.3509 211.4454 0000401 294.5510 65.5692 15.35718678205724
